This demonstration page uses our WeatherBlox Daily Observations layout. Learn more.

Left ArrowRight Arrow

39.01783, -85.05884

Hourly Observations for November 9, 2021

Temp ( °F °C ) Dew Point ( °F °C ) Humidity (%) Winds ( mph kmh ) Pressure ( in mb ) Visibility ( mi km ) Precip ( " mm )
12:52 am 00:52 Mostly Clear 51 10.6 37 2.8 59 59 SSW 9 15 30.19 1022 10 16 N/A
1:52 am 01:52 Mostly Clear 51 10.6 37 2.8 59 59 SSW 10 17 30.17 1022 10 16 N/A
2:52 am 02:52 Mostly Clear 51 10.6 36 2.2 56 56 WSW 5 7 30.20 1023 10 16 N/A
3:52 am 03:52 Mostly Clear 47 8.3 37 2.8 69 69 N N/A 30.20 1023 10 16 N/A
4:52 am 04:52 Mostly Clear 44 6.7 36 2.2 73 73 SSW 3 6 30.20 1023 10 16 N/A
5:52 am 05:52 Mostly Clear 44 6.7 35 1.7 71 71 SSW 7 11 30.20 1023 10 16 N/A
6:52 am 06:52 Mostly Clear 40 4.4 34 1.1 79 79 S 9 15 30.19 1023 10 16 N/A
7:52 am 07:52 Mostly Sunny 42 5.6 36 2.2 79 79 S 7 11 30.20 1023 10 16 N/A
8:52 am 08:52 Partly Cloudy 52 11.1 40 4.4 64 64 S 8 13 30.20 1023 10 16 N/A
9:52 am 09:52 Mostly Cloudy 57 13.9 41 5 55 55 SSW 9 15 30.19 1022 10 16 N/A
10:52 am 10:52 Cloudy 58 14.4 41 5 53 53 SSW 10 17 30.19 1022 10 16 N/A
11:52 am 11:52 Cloudy 61 16.1 42 5.6 50 50 SW 9 15 30.16 1021 10 16 N/A
12:52 pm 12:52 Cloudy 63 17.2 43 6.1 48 48 SSW 12 19 30.12 1020 10 16 N/A
1:52 pm 13:52 Cloudy 64 17.8 44 6.7 48 48 SSW 6 9 30.11 1020 10 16 N/A
2:52 pm 14:52 Cloudy 64 17.8 43 6.1 46 46 SSW 9 15 30.09 1019 10 16 N/A
3:52 pm 15:52 Cloudy 63 17.2 43 6.1 48 48 SSW 13 20 30.09 1019 10 16 N/A
4:52 pm 16:52 Cloudy 62 16.7 42 5.6 48 48 SW 8 13 30.11 1020 10 16 N/A
5:52 pm 17:52 Cloudy 60 15.6 43 6.1 53 53 SSW 7 11 30.10 1019 10 16 N/A
6:52 pm 18:52 Cloudy 59 15 43 6.1 56 56 SSW 7 11 30.11 1020 10 16 N/A
7:52 pm 19:52 Cloudy 59 15 43 6.1 56 56 SW 7 11 30.11 1020 10 16 N/A
8:52 pm 20:52 Cloudy 57 13.9 44 6.7 62 62 W 5 7 30.12 1020 10 16 N/A
9:52 pm 21:52 Cloudy 57 13.9 44 6.7 62 62 W 5 7 30.12 1020 10 16 N/A
10:52 pm 22:52 Cloudy 56 13.3 45 7.2 67 67 N N/A 30.12 1020 10 16 N/A
11:52 pm 23:52 Cloudy 53 11.7 45 7.2 74 74 SSW 3 6 30.12 1020 10 16 N/A

Powered by AerisWeather